When you browse on this site, cookies collect data to enhance your experience and personalize the content and advertising you see.
Visit our Privacy Policy to learn more. By continuing to use the site, you agree to this use of cookies and data.
  • In Spain
  • List of Countries
  • For 7 days
  • Water Temperature
  • Weather Map
  • Weather Widgets
  • user-avatar
    Login

    Hourly Weather San Miguel de Tucumán

    Today, 15 December, Sunday

    Time Temperature Precipitation Wind Pressure Humidity
    00:00 +28°C° 0 mm 2 mps 713 mmHg 63%
    01:00 +27°C° 0 mm 1 mps 713 mmHg 64%
    02:00 +27°C° 0 mm 1 mps 712 mmHg 65%
    03:00 +26°C° 0.4 mm 2 mps 713 mmHg 73%
    04:00 +25°C° 0.4 mm 4 mps 714 mmHg 82%
    05:00 +23°C° 0.4 mm 5 mps 714 mmHg 90%
    06:00 +22°C° 1 mm 4 mps 715 mmHg 91%
    07:00 +22°C° 1 mm 4 mps 716 mmHg 93%
    08:00 +22°C° 1 mm 3 mps 717 mmHg 94%
    09:00 +24°C° 0.1 mm 3 mps 718 mmHg 88%
    10:00 +25°C° 0.1 mm 3 mps 718 mmHg 82%
    11:00 +26°C° 0.1 mm 2 mps 718 mmHg 76%
    12:00 +28°C° 0.1 mm 2 mps 718 mmHg 69%
    13:00 +30°C° 0.1 mm 2 mps 717 mmHg 62%
    14:00 +31°C° 0.1 mm 2 mps 717 mmHg 55%
    15:00 +31°C° 0.1 mm 2 mps 716 mmHg 55%
    16:00 +31°C° 0.1 mm 2 mps 716 mmHg 55%
    17:00 +30°C° 0.1 mm 2 mps 715 mmHg 55%
    18:00 +29°C° 0.1 mm 1 mps 716 mmHg 59%
    19:00 +28°C° 0.1 mm 1 mps 716 mmHg 64%
    20:00 +27°C° 0.1 mm 1 mps 716 mmHg 69%
    21:00 +26°C° 0 mm 1 mps 716 mmHg 71%
    22:00 +26°C° 0 mm 1 mps 717 mmHg 73%
    23:00 +25°C° 0 mm 1 mps 717 mmHg 75%

    Tomorrow, 16 December, Monday

    Time Temperature Precipitation Wind Pressure Humidity
    00:00 +25°C° 0.3 mm 1 mps 717 mmHg 80%
    01:00 +24°C° 0.3 mm 1 mps 716 mmHg 84%
    02:00 +23°C° 0.3 mm 1 mps 716 mmHg 89%
    03:00 +23°C° 0.5 mm 1 mps 716 mmHg 90%
    04:00 +23°C° 0.5 mm 1 mps 716 mmHg 92%
    05:00 +23°C° 0.5 mm 1 mps 716 mmHg 93%
    06:00 +23°C° 0.6 mm 1 mps 717 mmHg 91%
    07:00 +23°C° 0.6 mm 1 mps 717 mmHg 89%
    08:00 +23°C° 0.6 mm 1 mps 718 mmHg 87%
    09:00 +23°C° 0.3 mm 2 mps 718 mmHg 87%
    10:00 +21°C° 0.3 mm 2 mps 718 mmHg 88%
    11:00 +21°C° 0.3 mm 3 mps 718 mmHg 88%
    12:00 +21°C° 0.1 mm 3 mps 718 mmHg 86%
    13:00 +21°C° 0.1 mm 3 mps 718 mmHg 84%
    14:00 +22°C° 0.1 mm 3 mps 718 mmHg 82%
    15:00 +21°C° 0.6 mm 3 mps 717 mmHg 84%
    16:00 +20°C° 0.6 mm 4 mps 717 mmHg 87%
    17:00 +19°C° 0.6 mm 4 mps 717 mmHg 90%
    18:00 +18°C° 0.5 mm 4 mps 718 mmHg 91%
    19:00 +18°C° 0.5 mm 3 mps 718 mmHg 91%
    20:00 +17°C° 0.5 mm 3 mps 719 mmHg 92%
    21:00 +17°C° 0.1 mm 3 mps 719 mmHg 89%
    22:00 +17°C° 0.1 mm 2 mps 720 mmHg 87%
    23:00 +18°C° 0.1 mm 2 mps 720 mmHg 85%

    Day after tomorrow, 17 December, Tuesday

    Time Temperature Precipitation Wind Pressure Humidity
    00:00 +17°C° 0 mm 2 mps 720 mmHg 85%
    01:00 +17°C° 0 mm 2 mps 719 mmHg 85%
    02:00 +17°C° 0 mm 2 mps 719 mmHg 86%
    03:00 +17°C° 0 mm 2 mps 719 mmHg 85%
    04:00 +18°C° 0 mm 1 mps 719 mmHg 85%
    05:00 +18°C° 0 mm 1 mps 719 mmHg 85%
    06:00 +20°C° 0 mm 1 mps 720 mmHg 76%
    07:00 +22°C° 0 mm 1 mps 720 mmHg 67%
    08:00 +25°C° 0 mm 1 mps 721 mmHg 58%
    09:00 +27°C° 0 mm 1 mps 721 mmHg 50%
    10:00 +30°C° 0 mm 1 mps 720 mmHg 42%
    11:00 +32°C° 0 mm 1 mps 720 mmHg 33%
    12:00 +34°C° 0 mm 2 mps 720 mmHg 31%
    13:00 +34°C° 0 mm 2 mps 719 mmHg 29%
    14:00 +35°C° 0 mm 2 mps 718 mmHg 27%
    15:00 +35°C° 0 mm 2 mps 717 mmHg 28%
    16:00 +35°C° 0 mm 3 mps 717 mmHg 28%
    17:00 +34°C° 0 mm 3 mps 716 mmHg 28%
    18:00 +31°C° 0 mm 2 mps 716 mmHg 33%
    19:00 +28°C° 0 mm 2 mps 716 mmHg 37%
    20:00 +25°C° 0 mm 2 mps 717 mmHg 42%
    21:00 +25°C° 0 mm 2 mps 717 mmHg 43%
    22:00 +24°C° 0 mm 1 mps 717 mmHg 44%
    23:00 +23°C° 0 mm 1 mps 718 mmHg 45%

    18 December, Wednesday

    Time Temperature Precipitation Wind Pressure Humidity
    00:00 +23°C° 0 mm 1 mps 717 mmHg 47%
    01:00 +22°C° 0 mm 1 mps 717 mmHg 49%
    02:00 +22°C° 0 mm 1 mps 717 mmHg 52%
    03:00 +21°C° 0 mm 1 mps 717 mmHg 54%
    04:00 +21°C° 0 mm 1 mps 717 mmHg 57%
    05:00 +20°C° 0 mm 1 mps 717 mmHg 60%
    06:00 +22°C° 0 mm 1 mps 717 mmHg 54%
    07:00 +24°C° 0 mm 1 mps 718 mmHg 48%
    08:00 +27°C° 0 mm 1 mps 718 mmHg 42%
    09:00 +29°C° 0 mm 1 mps 718 mmHg 39%
    10:00 +31°C° 0 mm 1 mps 718 mmHg 35%
    11:00 +34°C° 0 mm 1 mps 718 mmHg 31%
    12:00 +36°C° 0 mm 2 mps 717 mmHg 30%
    13:00 +37°C° 0 mm 2 mps 716 mmHg 29%
    14:00 +38°C° 0 mm 2 mps 716 mmHg 28%
    15:00 +38°C° 0 mm 3 mps 715 mmHg 29%
    16:00 +37°C° 0 mm 3 mps 715 mmHg 30%
    17:00 +37°C° 0 mm 3 mps 714 mmHg 31%
    18:00 +35°C° 0 mm 3 mps 714 mmHg 37%
    19:00 +31°C° 0 mm 2 mps 715 mmHg 43%
    20:00 +29°C° 0 mm 2 mps 715 mmHg 49%
    21:00 +28°C° 0 mm 2 mps 715 mmHg 49%
    22:00 +28°C° 0 mm 2 mps 715 mmHg 49%
    23:00 +27°C° 0 mm 2 mps 716 mmHg 50%

    19 December, Thursday

    Time Temperature Precipitation Wind Pressure Humidity
    00:00 +27°C° 0 mm 2 mps 715 mmHg 51%
    01:00 +26°C° 0 mm 1 mps 715 mmHg 52%
    02:00 +25°C° 0 mm 1 mps 714 mmHg 53%
    03:00 +25°C° 0 mm 1 mps 714 mmHg 56%
    04:00 +24°C° 0 mm 1 mps 714 mmHg 58%
    05:00 +23°C° 0 mm 1 mps 714 mmHg 61%
    06:00 +25°C° 0 mm 1 mps 715 mmHg 55%
    07:00 +28°C° 0 mm 1 mps 715 mmHg 49%
    08:00 +30°C° 0 mm 1 mps 716 mmHg 43%
    09:00 +32°C° 0 mm 1 mps 716 mmHg 38%
    10:00 +36°C° 0 mm 2 mps 716 mmHg 33%
    11:00 +39°C° 0 mm 2 mps 716 mmHg 28%
    12:00 +40°C° 0 mm 2 mps 715 mmHg 27%
    13:00 +40°C° 0 mm 3 mps 714 mmHg 26%
    14:00 +42°C° 0 mm 3 mps 713 mmHg 25%
    15:00 +42°C° 0 mm 3 mps 713 mmHg 25%
    16:00 +42°C° 0 mm 3 mps 712 mmHg 26%
    17:00 +40°C° 0 mm 3 mps 712 mmHg 26%
    18:00 +38°C° 0 mm 3 mps 712 mmHg 32%
    19:00 +36°C° 0 mm 3 mps 712 mmHg 37%
    20:00 +33°C° 0 mm 3 mps 713 mmHg 42%
    21:00 +33°C° 0 mm 3 mps 713 mmHg 43%
    22:00 +31°C° 0 mm 2 mps 713 mmHg 43%
    23:00 +30°C° 0 mm 2 mps 713 mmHg 44%

    20 December, Friday

    Time Temperature Precipitation Wind Pressure Humidity
    00:00 +29°C° 0 mm 2 mps 713 mmHg 46%
    01:00 +29°C° 0 mm 2 mps 712 mmHg 49%
    02:00 +28°C° 0 mm 1 mps 712 mmHg 51%
    03:00 +27°C° 0 mm 1 mps 712 mmHg 53%
    04:00 +27°C° 0 mm 1 mps 712 mmHg 55%
    05:00 +26°C° 0 mm 1 mps 712 mmHg 58%
    06:00 +28°C° 0 mm 1 mps 712 mmHg 52%
    07:00 +31°C° 0 mm 1 mps 713 mmHg 46%
    08:00 +33°C° 0 mm 1 mps 714 mmHg 40%
    09:00 +36°C° 0 mm 2 mps 715 mmHg 36%
    10:00 +38°C° 0 mm 3 mps 715 mmHg 32%
    11:00 +40°C° 0 mm 4 mps 716 mmHg 29%
    12:00 +41°C° 0.1 mm 4 mps 715 mmHg 28%
    13:00 +41°C° 0.1 mm 4 mps 715 mmHg 27%
    14:00 +42°C° 0.1 mm 4 mps 714 mmHg 27%
    15:00 +40°C° 0.1 mm 4 mps 714 mmHg 31%
    16:00 +38°C° 0.1 mm 4 mps 714 mmHg 35%
    17:00 +37°C° 0.1 mm 4 mps 713 mmHg 39%
    18:00 +35°C° 0.1 mm 3 mps 714 mmHg 47%
    19:00 +32°C° 0.1 mm 2 mps 714 mmHg 56%
    20:00 +29°C° 0.1 mm 2 mps 715 mmHg 64%
    21:00 +28°C° 1.4 mm 2 mps 716 mmHg 72%
    22:00 +27°C° 1.4 mm 2 mps 716 mmHg 79%
    23:00 +26°C° 1.4 mm 2 mps 717 mmHg 87%
    Show more